Location: Stoke Bliss
(52.2667°N, 2.5167°W)
Time: 12:59:13
(UTC+00:00)

Envisat - Pass Details

Date: 11 December 2021
Orbit: 764 x 766 km, 98.2° (Epoch: 23 January)

Event Time Altitude Azimuth Distance (km) Brightness Sun altitude
Rises 06:08:37 0° 10° (N) 3,248 6.2 -17.2°
Reaches altitude 10° 06:11:01 10° 4° (N) 2,317 5.4 -16.9°
Maximum altitude 06:15:50 44° 294° (WNW) 1,063 3.3 -16.2°
Drops below altitude 10° 06:20:36 10° 224° (SW) 2,300 5.2 -15.5°
Sets 06:22:59 0° 218° (SW) 3,222 6.0 -15.1°
